Satellite-Ground Cal/Val Region Overpasses Predictions

Prediction of Satellite NPP Overpassing Cal/Val Region: PacNW

Region Location: (Latitude: 10.00, Longitude: 139.50) to (Latitude: 22.70, Longitude: 165.60).

Table of predicted overpasses for the next 14.0 days since TLE Epoch: 10/3/2022
Interval Starting Time Starting Location Ending Time Ending Location
1 10/03/2022 14:59:35 ( 22.66, 160.16) 10/03/2022 15:03:10 ( 10.04, 157.16)
2 10/04/2022 02:11:12 ( 18.94, 165.59) 10/04/2022 02:12:16 ( 22.70, 164.67)
3 10/04/2022 03:50:10 ( 10.02, 142.31) 10/04/2022 03:53:31 ( 21.82, 139.51)
4 10/04/2022 14:40:34 ( 22.65, 164.92) 10/04/2022 14:44:09 ( 10.03, 161.91)
5 10/04/2022 16:22:03 ( 22.70, 139.56) 10/04/2022 16:22:06 ( 22.52, 139.51)
6 10/05/2022 03:31:08 ( 10.04, 147.06) 10/05/2022 03:34:43 ( 22.66, 144.06)
7 10/05/2022 16:03:01 ( 22.68, 144.31) 10/05/2022 16:06:37 ( 10.00, 141.29)
8 10/06/2022 03:12:06 ( 10.00, 151.83) 10/06/2022 03:15:42 ( 22.68, 148.81)
9 10/06/2022 15:44:00 ( 22.66, 149.06) 10/06/2022 15:47:35 ( 10.04, 146.06)
10 10/07/2022 02:53:05 ( 10.02, 156.59) 10/07/2022 02:56:40 ( 22.65, 153.58)
11 10/07/2022 15:24:57 ( 22.70, 153.83) 10/07/2022 15:28:33 ( 10.02, 150.81)
12 10/08/2022 02:34:03 ( 10.05, 161.34) 10/08/2022 02:37:38 ( 22.67, 158.33)
13 10/08/2022 15:05:56 ( 22.67, 158.58) 10/08/2022 15:09:31 ( 10.05, 155.58)
14 10/09/2022 02:15:39 ( 12.24, 165.59) 10/09/2022 02:18:37 ( 22.69, 163.09)
15 10/09/2022 03:56:31 ( 10.02, 140.73) 10/09/2022 03:58:01 ( 15.31, 139.50)
16 10/09/2022 14:46:54 ( 22.65, 163.34) 10/09/2022 14:50:29 ( 10.03, 160.33)
17 10/10/2022 03:37:29 ( 10.04, 145.48) 10/10/2022 03:41:04 ( 22.67, 142.48)
18 10/10/2022 14:30:50 ( 12.24, 165.60) 10/10/2022 14:31:28 ( 10.00, 165.09)
19 10/10/2022 16:09:22 ( 22.68, 142.73) 10/10/2022 16:12:57 ( 10.06, 139.72)
20 10/11/2022 03:18:27 ( 10.01, 150.25) 10/11/2022 03:22:03 ( 22.69, 147.23)
21 10/11/2022 15:50:20 ( 22.65, 147.48) 10/11/2022 15:53:55 ( 10.03, 144.48)
22 10/12/2022 02:59:25 ( 10.04, 155.00) 10/12/2022 03:03:00 ( 22.66, 152.00)
23 10/12/2022 15:31:18 ( 22.68, 152.25) 10/12/2022 15:34:54 ( 10.00, 149.23)
24 10/13/2022 02:40:23 ( 10.01, 159.77) 10/13/2022 02:43:59 ( 22.69, 156.75)
25 10/13/2022 15:12:16 ( 22.65, 157.00) 10/13/2022 15:15:51 ( 10.03, 153.99)
26 10/14/2022 02:21:21 ( 10.04, 164.52) 10/14/2022 02:24:56 ( 22.66, 161.52)
27 10/14/2022 14:53:14 ( 22.68, 161.77) 10/14/2022 14:56:50 ( 10.00, 158.75)
28 10/15/2022 03:43:49 ( 10.02, 143.91) 10/15/2022 03:47:25 ( 22.70, 140.89)
29 10/15/2022 14:35:17 ( 18.90, 165.59) 10/15/2022 14:37:48 ( 10.03, 163.51)
30 10/15/2022 16:15:43 ( 22.64, 141.14) 10/15/2022 16:17:38 ( 15.90, 139.50)
31 10/16/2022 03:24:47 ( 10.05, 148.66) 10/16/2022 03:28:22 ( 22.67, 145.66)
32 10/16/2022 15:56:40 ( 22.67, 145.91) 10/16/2022 16:00:15 ( 10.05, 142.90)
